Weather History for KGPI - March, 2012

Change the Weather History Date:

Monday, March 26, 2012

  Actual Average Record
Temperature  
Mean Temperature 39 °F 39 °F  
Max Temperature 52 °F 50 °F 68 °F (1899)
Min Temperature 26 °F 28 °F -7 °F (1955)
Degree Days  
Heating Degree Days 26 26  
Month to date heating degree days 746 792  
Since 1 July heating degree days 6200 6644  
Cooling Degree Days 0 0  
Month to date cooling degree days 0 0  
Year to date cooling degree days 0 0  
Moisture  
Dew Point 33 °F    
Average Humidity 75    
Maximum Humidity 96    
Minimum Humidity 54    
Precipitation  
Precipitation 0.02 in 0.04 in 0.46 in (1914)
Month to date precipitation 1.30 0.91  
Year to date precipitation 3.71 3.21  
Snow  
Snow 0.00 in - - ()
Month to date snowfall 2.1  
Year to date snowfall 25.1  
Since 1 July snowfall 31.4  
Snow Depth 0.00 in    
Sea Level Pressure  
Sea Level Pressure 29.67 in    
Wind  
Wind Speed 6 mph (SSW)    
Max Wind Speed 18 mph    
Max Gust Speed 23 mph    
Visibility 10 miles    
Events Rain    
T = Trace of Precipitation, MM = Missing Value Source: NWS Daily Summary

Daily Weather History Graph

Daily Weather History Graph

Search for Another Location

Airport or City:

Trip Planner

Search our weather history database for the weather conditions in past years. The results will help you decide how hot, cold, wet, or windy it might be!

Date:

Astronomy

Mar. 26, 2012 Rise Set
Actual Time 7:26 AM MDT 7:59 PM MDT
Civil Twilight 6:54 AM MDT 8:31 PM MDT
Nautical Twilight 6:17 AM MDT 9:08 PM MDT
Astronomical Twilight 5:39 AM MDT 9:47 PM MDT
Moon 8:57 AM MDT (3/26) No Moon Set
Length of Visible Light 13h 36m
Length of Day
12h 33m
Waxing Crescent, 15% of the Moon is Illuminated
Mar 26
Waxing Crescent
Mar 30
First Quarter
Apr 6
Full
Apr 13
Last Quarter
Apr 21
New

Hourly Weather History & Observations

Time (MDT) Temp. Windchill Dew Point Humidity Pressure Visibility Wind Dir Wind Speed Gust Speed Precip Events Conditions
12:55 AM 39.0 °F - 34.0 °F 82% 29.65 in 10.0 mi Calm Calm - 0.00 in   Partly Cloudy
1:55 AM 37.0 °F 34.5 °F 32.0 °F 82% 29.65 in 10.0 mi SSW 3.5 mph - N/A   Partly Cloudy
2:55 AM 34.0 °F 29.8 °F 32.0 °F 92% 29.65 in 10.0 mi South 4.6 mph - N/A   Clear
3:55 AM 32.0 °F - 30.0 °F 92% 29.62 in 10.0 mi Calm Calm - N/A   Clear
4:55 AM 30.9 °F - 28.9 °F 92% 29.61 in 10.0 mi Calm Calm - N/A   Clear
5:55 AM 28.9 °F - 27.0 °F 92% 29.60 in 10.0 mi Calm Calm - N/A   Clear
6:55 AM 28.9 °F - 27.0 °F 92% 29.59 in 10.0 mi Calm Calm - N/A   Clear
7:55 AM 28.0 °F 22.8 °F 26.1 °F 92% 29.61 in 10.0 mi West 4.6 mph - N/A   Clear
8:55 AM 35.1 °F - 30.9 °F 85% 29.61 in 10.0 mi Calm Calm - N/A   Partly Cloudy
9:55 AM 41.0 °F 39.0 °F 32.0 °F 70% 29.62 in 10.0 mi SSW 3.5 mph - N/A   Mostly Cloudy
10:55 AM 44.1 °F 42.5 °F 34.0 °F 68% 29.58 in 10.0 mi Variable 3.5 mph - N/A   Partly Cloudy
11:55 AM 48.9 °F - 35.1 °F 59% 29.57 in 10.0 mi SW 3.5 mph - N/A   Mostly Cloudy
12:55 PM 51.1 °F - 35.1 °F 54% 29.57 in 10.0 mi SSW 5.8 mph - N/A   Mostly Cloudy
1:55 PM 48.9 °F - 35.1 °F 59% 29.59 in 10.0 mi SE 8.1 mph - N/A   Overcast
2:55 PM 46.9 °F - 39.0 °F 74% 29.62 in 10.0 mi South 8.1 mph - 0.00 in Rain Light Rain
3:55 PM 46.0 °F 41.4 °F 37.9 °F 73% 29.65 in 10.0 mi South 9.2 mph - 0.01 in   Overcast
4:30 PM 46.4 °F 41.5 °F 37.4 °F 71% 29.62 in 10.0 mi South 10.4 mph - N/A   Overcast
4:53 PM 46.4 °F 41.1 °F 39.2 °F 76% 29.64 in 10.0 mi South 11.5 mph - N/A   Overcast
4:55 PM 46.0 °F 40.6 °F 39.0 °F 76% 29.69 in 10.0 mi South 11.5 mph - N/A   Overcast
5:55 PM 48.0 °F - 34.0 °F 58% 29.71 in 10.0 mi SSW 16.1 mph - 0.01 in   Overcast
6:55 PM 45.0 °F 38.5 °F 32.0 °F 60% 29.76 in 10.0 mi SSW 13.8 mph - N/A   Mostly Cloudy
7:55 PM 44.1 °F 38.1 °F 30.9 °F 60% 29.79 in 10.0 mi SW 11.5 mph - N/A   Overcast
8:55 PM 43.0 °F 36.8 °F 30.9 °F 62% 29.81 in 10.0 mi SSW 11.5 mph - N/A   Overcast
9:55 PM 43.0 °F 38.8 °F 30.9 °F 62% 29.83 in 10.0 mi SSW 6.9 mph - N/A   Overcast
10:55 PM 42.1 °F 36.6 °F 32.0 °F 67% 29.82 in 10.0 mi SW 9.2 mph - N/A   Overcast
11:55 PM 41.0 °F 36.4 °F 32.0 °F 70% 29.83 in 10.0 mi South 6.9 mph - N/A   Overcast